When you browse on this site, cookies collect data to enhance your experience and personalize the content and advertising you see.
Visit our Privacy Policy to learn more. By continuing to use the site, you agree to this use of cookies and data.
  • In Lithuania
  • List of Countries
  • For 7 days
  • Water Temperature
  • Satellite Maps
  • Weather Map
  • Weather Widgets
  • user-avatar
    Login

    Hourly Weather Otradnyy

    Today, 11 December, Tuesday

    Time Temperature Precipitation Wind Pressure Humidity
    00:00 +2°C° 0.3 mm 6 mps 757 mmHg 92%
    01:00 +2°C° 0 mm 5 mps 757 mmHg 92%
    02:00 +2°C° 0 mm 5 mps 757 mmHg 92%
    03:00 +2°C° 0 mm 3 mps 757 mmHg 95%
    04:00 +2°C° 0 mm 3 mps 757 mmHg 95%
    05:00 +1°C° 0 mm 4 mps 757 mmHg 95%
    06:00 +1°C° 0 mm 5 mps 756 mmHg 95%
    07:00 +1°C° 0 mm 5 mps 756 mmHg 94%
    08:00 +1°C° 0 mm 5 mps 756 mmHg 94%
    09:00 +1°C° 0 mm 5 mps 756 mmHg 94%
    10:00 +1°C° 0 mm 6 mps 756 mmHg 92%
    11:00 +2°C° 0 mm 6 mps 755 mmHg 90%
    12:00 +2°C° 0 mm 7 mps 755 mmHg 88%
    13:00 +3°C° 0 mm 7 mps 755 mmHg 88%
    14:00 +3°C° 0 mm 7 mps 754 mmHg 88%
    15:00 +3°C° 0 mm 7 mps 754 mmHg 88%
    16:00 +3°C° 0.3 mm 6 mps 754 mmHg 89%
    17:00 +3°C° 0.3 mm 6 mps 754 mmHg 91%
    18:00 +3°C° 0.3 mm 5 mps 755 mmHg 92%
    19:00 +3°C° 0.8 mm 6 mps 754 mmHg 92%
    20:00 +3°C° 0.8 mm 6 mps 754 mmHg 93%
    21:00 +3°C° 0.8 mm 7 mps 754 mmHg 93%
    22:00 +3°C° 0 mm 7 mps 754 mmHg 93%
    23:00 +4°C° 0 mm 6 mps 754 mmHg 93%

    Tomorrow, 12 December, Wednesday

    Time Temperature Precipitation Wind Pressure Humidity
    00:00 +4°C° 0 mm 6 mps 754 mmHg 92%
    01:00 +4°C° 0 mm 6 mps 754 mmHg 91%
    02:00 +4°C° 0 mm 6 mps 754 mmHg 91%
    03:00 +4°C° 0 mm 6 mps 754 mmHg 90%
    04:00 +4°C° 0 mm 6 mps 754 mmHg 88%
    05:00 +4°C° 0 mm 6 mps 754 mmHg 85%
    06:00 +5°C° 0 mm 6 mps 754 mmHg 83%
    07:00 +5°C° 0 mm 6 mps 754 mmHg 82%
    08:00 +4°C° 0 mm 6 mps 754 mmHg 81%
    09:00 +4°C° 0 mm 6 mps 755 mmHg 80%
    10:00 +5°C° 0 mm 6 mps 755 mmHg 77%
    11:00 +5°C° 0 mm 7 mps 755 mmHg 74%
    12:00 +6°C° 0 mm 7 mps 755 mmHg 71%
    13:00 +5°C° 0 mm 7 mps 756 mmHg 70%
    14:00 +5°C° 0 mm 6 mps 756 mmHg 70%
    15:00 +5°C° 0 mm 6 mps 756 mmHg 70%
    16:00 +5°C° 0 mm 5 mps 757 mmHg 73%
    17:00 +4°C° 0 mm 4 mps 757 mmHg 76%
    18:00 +4°C° 0 mm 4 mps 757 mmHg 78%
    19:00 +4°C° 0.1 mm 4 mps 758 mmHg 79%
    20:00 +3°C° 0.1 mm 3 mps 758 mmHg 81%
    21:00 +3°C° 0.1 mm 3 mps 759 mmHg 82%
    22:00 +3°C° 0 mm 3 mps 759 mmHg 83%
    23:00 +3°C° 0 mm 3 mps 759 mmHg 84%

    Day after tomorrow, 13 December, Thursday

    Time Temperature Precipitation Wind Pressure Humidity
    00:00 +3°C° 0 mm 3 mps 760 mmHg 85%
    01:00 +2°C° 0 mm 3 mps 760 mmHg 87%
    02:00 +2°C° 0 mm 3 mps 760 mmHg 89%
    03:00 +2°C° 0 mm 2 mps 760 mmHg 90%
    04:00 +2°C° 0 mm 2 mps 761 mmHg 91%
    05:00 +2°C° 0 mm 2 mps 761 mmHg 91%
    06:00 +1°C° 0 mm 2 mps 761 mmHg 91%
    07:00 +1°C° 0 mm 2 mps 761 mmHg 90%
    08:00 +1°C° 0 mm 2 mps 762 mmHg 90%
    09:00 +1°C° 0 mm 2 mps 762 mmHg 89%
    10:00 +1°C° 0 mm 3 mps 763 mmHg 83%
    11:00 +2°C° 0 mm 3 mps 763 mmHg 77%
    12:00 +3°C° 0 mm 4 mps 763 mmHg 72%
    13:00 +3°C° 0 mm 3 mps 763 mmHg 71%
    14:00 +4°C° 0 mm 3 mps 764 mmHg 70%
    15:00 +4°C° 0 mm 3 mps 764 mmHg 69%
    16:00 +3°C° 0 mm 3 mps 764 mmHg 73%
    17:00 +3°C° 0 mm 2 mps 765 mmHg 77%
    18:00 +3°C° 0 mm 2 mps 765 mmHg 81%
    19:00 +2°C° 0 mm 2 mps 765 mmHg 82%
    20:00 +2°C° 0 mm 2 mps 766 mmHg 83%
    21:00 +2°C° 0 mm 2 mps 766 mmHg 85%
    22:00 +2°C° 0 mm 2 mps 766 mmHg 86%
    23:00 +2°C° 0 mm 2 mps 766 mmHg 87%

    14 December, Friday

    Time Temperature Precipitation Wind Pressure Humidity
    00:00 +1°C° 0 mm 2 mps 767 mmHg 88%
    01:00 +1°C° 0 mm 2 mps 767 mmHg 87%
    02:00 +2°C° 0 mm 1 mps 767 mmHg 87%
    03:00 +2°C° 0 mm 1 mps 767 mmHg 86%
    04:00 +2°C° 0 mm 1 mps 767 mmHg 85%
    05:00 +2°C° 0 mm 1 mps 767 mmHg 84%
    06:00 +2°C° 0 mm 1 mps 767 mmHg 83%
    07:00 +2°C° 0 mm 1 mps 767 mmHg 82%
    08:00 +2°C° 0 mm 1 mps 767 mmHg 80%
    09:00 +2°C° 0 mm 1 mps 767 mmHg 79%
    10:00 +3°C° 0 mm 1 mps 767 mmHg 75%
    11:00 +4°C° 0 mm 1 mps 767 mmHg 72%
    12:00 +6°C° 0 mm 1 mps 767 mmHg 68%
    13:00 +6°C° 0 mm 1 mps 767 mmHg 70%
    14:00 +6°C° 0 mm 1 mps 767 mmHg 71%
    15:00 +6°C° 0 mm 1 mps 767 mmHg 73%
    16:00 +4°C° 0 mm 0 mps 767 mmHg 77%
    17:00 +3°C° 0 mm 0 mps 767 mmHg 81%
    18:00 +2°C° 0 mm 0 mps 767 mmHg 85%
    19:00 +2°C° 0 mm 0 mps 768 mmHg 86%
    20:00 +3°C° 0 mm 1 mps 768 mmHg 86%
    21:00 +3°C° 0 mm 1 mps 768 mmHg 87%
    22:00 +3°C° 0 mm 1 mps 768 mmHg 88%
    23:00 +2°C° 0 mm 1 mps 768 mmHg 88%

    15 December, Saturday

    Time Temperature Precipitation Wind Pressure Humidity
    00:00 +2°C° 0 mm 1 mps 768 mmHg 89%
    01:00 +2°C° 0 mm 1 mps 769 mmHg 89%
    02:00 +2°C° 0 mm 1 mps 769 mmHg 89%
    03:00 +2°C° 0 mm 1 mps 769 mmHg 90%
    04:00 +2°C° 0 mm 1 mps 769 mmHg 90%
    05:00 +2°C° 0 mm 1 mps 769 mmHg 90%
    06:00 -1°C° 0 mm 2 mps 769 mmHg 90%
    07:00 +1°C° 0 mm 2 mps 770 mmHg 90%
    08:00 +1°C° 0 mm 2 mps 770 mmHg 89%
    09:00 +1°C° 0 mm 2 mps 771 mmHg 89%
    10:00 +2°C° 0 mm 2 mps 771 mmHg 84%
    11:00 +3°C° 0 mm 2 mps 771 mmHg 78%
    12:00 +4°C° 0 mm 2 mps 771 mmHg 73%
    13:00 +4°C° 0 mm 2 mps 771 mmHg 73%
    14:00 +4°C° 0 mm 2 mps 772 mmHg 73%
    15:00 +2°C° 0 mm 3 mps 772 mmHg 72%
    16:00 +2°C° 0 mm 2 mps 772 mmHg 76%
    17:00 +1°C° 0 mm 2 mps 772 mmHg 81%
    18:00 -1°C° 0 mm 2 mps 773 mmHg 85%
    19:00 -1°C° 0 mm 2 mps 773 mmHg 85%
    20:00 -1°C° 0 mm 2 mps 773 mmHg 86%
    21:00 -2°C° 0 mm 2 mps 774 mmHg 86%
    22:00 -2°C° 0 mm 2 mps 774 mmHg 86%
    23:00 -2°C° 0 mm 3 mps 774 mmHg 85%

    16 December, Sunday

    Time Temperature Precipitation Wind Pressure Humidity
    00:00 -2°C° 0 mm 3 mps 774 mmHg 84%
    01:00 -2°C° 0 mm 3 mps 774 mmHg 83%
    02:00 -2°C° 0 mm 3 mps 774 mmHg 83%
    03:00 -4°C° 0 mm 3 mps 775 mmHg 82%
    04:00 -4°C° 0 mm 3 mps 775 mmHg 82%
    05:00 -4°C° 0 mm 4 mps 775 mmHg 82%
    06:00 -4°C° 0 mm 4 mps 775 mmHg 83%
    07:00 -4°C° 0 mm 4 mps 775 mmHg 81%
    08:00 -4°C° 0 mm 5 mps 775 mmHg 80%
    09:00 -4°C° 0 mm 5 mps 775 mmHg 79%
    10:00 -4°C° 0 mm 5 mps 775 mmHg 76%
    11:00 -2°C° 0 mm 5 mps 775 mmHg 73%
    12:00 -1°C° 0 mm 5 mps 775 mmHg 71%
    13:00 -1°C° 0 mm 5 mps 775 mmHg 71%
    14:00 -2°C° 0 mm 6 mps 775 mmHg 71%
    15:00 -2°C° 0 mm 6 mps 775 mmHg 71%
    16:00 -3°C° 0 mm 6 mps 775 mmHg 74%
    17:00 -3°C° 0 mm 6 mps 775 mmHg 77%
    18:00 -4°C° 0 mm 6 mps 775 mmHg 79%
    19:00 -4°C° 0 mm 6 mps 775 mmHg 79%
    20:00 -4°C° 0 mm 6 mps 775 mmHg 79%
    21:00 -4°C° 0 mm 6 mps 775 mmHg 79%
    22:00 -4°C° 0 mm 6 mps 775 mmHg 79%
    23:00 -4°C° 0 mm 6 mps 775 mmHg 80%
    Show more